Hurlburt Field, FL

5:48 PM CDT on May 26, 2017 (GMT -0500)
Hurlburt

Weather History for KHRT - March, 2013

Change the Weather History Date:

Thursday, March 14, 2013

  Actual Average Record
Temperature  
Mean Temperature 50 °F -  
Max Temperature 64 °F 67 °F 82 °F (1997)
Min Temperature 36 °F 50 °F 35 °F (1998)
Degree Days  
Heating Degree Days 16    
Moisture  
Dew Point 31 °F    
Average Humidity 47    
Maximum Humidity 93    
Minimum Humidity 28    
Precipitation  
Precipitation 0.00 in - - ()
Sea Level Pressure  
Sea Level Pressure 30.32 in    
Wind  
Wind Speed 9 mph (North)    
Max Wind Speed 14 mph    
Max Gust Speed 20 mph    
Visibility 10 miles    
Events Rain    
Averages and records for this station are not official NWS values.
T = Trace of Precipitation, MM = Missing Value Source: NWS Daily Summary

Daily Weather History Graph

Daily Weather History Graph

Search for Another Location

Airport or City:

Trip Planner

Search our weather history database for the weather conditions in past years. The results will help you decide how hot, cold, wet, or windy it might be!

Date:

Astronomy

Mar. 14, 2013 Rise Set
Actual Time 6:57 AM CDT 6:54 PM CDT
Civil Twilight 6:33 AM CDT 7:18 PM CDT
Nautical Twilight 6:05 AM CDT 7:46 PM CDT
Astronomical Twilight 5:37 AM CDT 8:14 PM CDT
Moon 8:25 AM CDT (3/14) 9:53 PM CDT (3/14)
Length of Visible Light 12h 44m
Length of Day
11h 56m
Waxing Crescent, 9% of the Moon is Illuminated
Mar 14
Waxing Crescent
Mar 19
First Quarter
Mar 27
Full
Apr 2
Last Quarter
Apr 10
New

Hourly Weather History & Observations

Time (CDT) Temp. Windchill Dew Point Humidity Pressure Visibility Wind Dir Wind Speed Gust Speed Precip Events Conditions
12:58 AM 48.0 °F - 26.2 °F 43% 30.33 in 10.0 mi NNW 10.4 mph - N/A   Clear
1:58 AM 46.9 °F - 26.8 °F 45% 30.33 in 10.0 mi NNW 12.7 mph - N/A   Clear
2:58 AM 43.7 °F 38.6 °F 28.4 °F 55% 30.32 in 10.0 mi North 9.2 mph - N/A   Clear
3:58 AM 43.3 °F 37.2 °F 27.5 °F 54% 30.32 in 10.0 mi North 11.5 mph - N/A   Clear
4:58 AM 41.7 °F 34.8 °F 27.7 °F 58% 30.34 in 10.0 mi North 12.7 mph - N/A   Clear
5:58 AM 39.0 °F 32.8 °F 28.2 °F 65% 30.35 in 10.0 mi North 9.2 mph - N/A   Clear
6:58 AM 36.5 °F 30.3 °F 27.9 °F 71% 30.37 in 10.0 mi North 8.1 mph - N/A   Clear
7:58 AM 40.5 °F 35.1 °F 28.6 °F 63% 30.40 in 10.0 mi North 8.1 mph - N/A   Clear
8:58 AM 44.8 °F 38.3 °F 27.0 °F 50% 30.41 in 10.0 mi NNE 13.8 mph 19.6 mph N/A   Clear
9:58 AM 49.3 °F - 27.1 °F 42% 30.41 in 10.0 mi NNE 12.7 mph - N/A   Clear
10:58 AM 53.4 °F - 28.4 °F 38% 30.41 in 10.0 mi NNE 9.2 mph - N/A   Clear
11:58 AM 56.7 °F - 28.0 °F 33% 30.39 in 10.0 mi North 13.8 mph - N/A   Clear
12:58 PM 58.8 °F - 28.4 °F 31% 30.36 in 10.0 mi NNE 9.2 mph 17.3 mph N/A   Clear
1:58 PM 61.3 °F - 29.1 °F 30% 30.34 in 10.0 mi Variable 6.9 mph - N/A   Clear
2:58 PM 62.4 °F - 29.1 °F 28% 30.31 in 10.0 mi NNW 9.2 mph - N/A   Clear
3:58 PM 63.3 °F - 30.2 °F 29% 30.29 in 10.0 mi NW 9.2 mph - N/A   Clear
4:58 PM 63.9 °F - 31.3 °F 29% 30.27 in 10.0 mi North 11.5 mph - N/A   Clear
5:58 PM 62.4 °F - 31.1 °F 31% 30.28 in 10.0 mi North 6.9 mph - N/A   Clear
6:47 PM 59.0 °F - 32.0 °F 36% 30.27 in 9.0 mi NNE 3.5 mph - N/A Rain Light Rain
6:58 PM 59.0 °F - 32.2 °F 36% 30.28 in 9.0 mi North 3.5 mph - 0.00 in Rain Light Rain
7:21 PM 57.2 °F - 32.0 °F 38% 30.28 in 10.0 mi North 2.3 mph - N/A   Clear
7:25 PM 57.2 °F - 33.8 °F 41% 30.28 in 10.0 mi NW 2.3 mph - N/A Rain Light Rain
7:28 PM 57.2 °F - 33.8 °F 41% 30.28 in 10.0 mi NW 2.3 mph - N/A   Clear
7:34 PM 57.2 °F - 32.0 °F 38% 30.28 in 10.0 mi Calm Calm - N/A Rain Light Rain
7:35 PM 57.2 °F - 32.0 °F 38% 30.28 in 10.0 mi North 1.2 mph - N/A   Clear
7:58 PM 55.9 °F - 35.6 °F 46% 30.29 in 10.0 mi NNW 1.2 mph - 0.00 in   Clear
8:58 PM 54.3 °F - 40.8 °F 60% 30.31 in 10.0 mi WNW 6.9 mph - N/A   Clear
9:58 PM 54.0 °F - 41.4 °F 62% 30.31 in 10.0 mi WNW 4.6 mph - N/A   Clear
10:58 PM 44.2 °F - 41.0 °F 88% 30.32 in 10.0 mi North 2.3 mph - N/A   Clear
11:58 PM 41.9 °F 39.0 °F 40.1 °F 93% 30.32 in 10.0 mi North 4.6 mph - N/A   Clear